Location: Newark
(41.5333°N, 14.5500°E)
Time: 13:40:25
(UTC+00:00)

Envisat - Pass Details

Date: 27 January 2020
Orbit: 764 x 766 km, 98.1° (Epoch: 24 February)

Event Time Altitude Azimuth Distance (km) Brightness Sun altitude
Rises 17:52:22 0° 200° (SSW) 3,219 6.6 -19.1°
Reaches altitude 10° 17:55:07 10° 215° (SW) 2,298 6.0 -19.6°
Maximum altitude 17:59:05 23° 267° (W) 1,588 5.5 -20.3°
Drops below altitude 10° 18:03:05 10° 319° (NW) 2,310 5.9 -21.1°
Sets 18:05:52 0° 334° (NNW) 3,241 6.5 -21.6°
